• MPC Preparation (Info)

  • MPEC 2012-L38 : 2012 LQ7

    The following Minor Planet Electronic Circular may be linked-to from your own Web pages, but must not otherwise be redistributed electronically.

    A form allowing access to any MPEC is at the bottom of this page.


    Read MPEC 2012-L37 Read MPEC 2012-L39


    M.P.E.C. 2012-L38                                Issued 2012 June 14, 14:25 UT
    
         The Minor Planet Electronic Circulars contain information on unusual
             minor planets and routine data on comets.  They are published
       on behalf of Commission 20 of the International Astronomical Union by the
              Minor Planet Center, Smithsonian Astrophysical Observatory,
                              Cambridge, MA 02138, U.S.A.
    
                 Prepared using the Tamkin Foundation Computer Network
    
                                  MPC@CFA.HARVARD.EDU
                URL https://www.minorplanetcenter.net/    ISSN 1523-6714
    
                                       2012 LQ7
    
    Observations:
         K12L07Q* C2012 06 13.33191 15 56 39.414-06 57 05.88         21.5 wLEL038F51
         K12L07Q  C2012 06 13.34665 15 56 39.544-06 57 57.81         21.4 wLEL038F51
         K12L07Q  C2012 06 13.36137 15 56 39.633-06 58 49.88         21.6 wLEL038F51
         K12L07Q  C2012 06 13.37611 15 56 39.759-06 59 42.42         21.7 wLEL038F51
         K12L07Q  C2012 06 14.22640 15 57 06.59 -07 51 24.8          21.9 RoEL038H01
         K12L07Q  C2012 06 14.23155 15 57 06.65 -07 51 44.3          21.3 RoEL038H01
         K12L07Q  C2012 06 14.24280 15 57 06.80 -07 52 26.0          21.4 RoEL038H01
         K12L07Q  C2012 06 14.24992 15 57 06.92 -07 52 52.9          21.6 RoEL038H01
         K12L07Q %C2012 06 14.33565315 57 10.85 -07 58 02.9          21.8 RtEL038F65
         K12L07Q %C2012 06 14.34295315 57 10.93 -07 58 30.4          22.0 RtEL038F65
         K12L07Q %C2012 06 14.35025915 57 11.01 -07 58 57.9          21.4 RtEL038F65
    
    Observer details:
    F51 Pan-STARRS 1, Haleakala.  Observers N. Primak, A. Schultz, S. Watters,
        J. Thiel, T. Goggia.  Measurer PS1 Science Consortium.  1.8-m
        Ritchey-Chretien + CCD.
    F65 Haleakala-Faulkes Telescope North.  Observer T. Lister.  2.0-m f/10
        Ritchey-Chretien + CCD.
    H01 Magdalena Ridge Observatory, Socorro.  Observer W. H. Ryan.  2.4-m f/8.9
        reflector + CCD.
    
    Orbital elements:
    2012 LQ7                                                 Earth MOID = 0.0972 AU
    Epoch 2012 Mar. 14.0 TT = JDT 2456000.5                 MPC
    M 326.37409              (2000.0)            P               Q
    n   0.27464886     Peri.  201.38769     +0.35112196     +0.91948324
    a   2.3439635      Node    89.52029     -0.83137627     +0.39302489
    e   0.5303690      Incl.   10.18472     -0.43072829     -0.00905631
    P   3.59           H   24.2           G   0.15           U   8
    Residuals in seconds of arc
    120613 F51  0.0   0.2-    120614 H01  0.1+  0.1+    120614 F65  0.0   0.1+
    120613 F51  0.2+  0.1+    120614 H01  0.0   0.1-    120614 F65  0.1-  0.0
    120613 F51  0.2-  0.2+    120614 H01  0.1-  0.1+    120614 F65  0.2-  0.0
    120613 F51  0.0   0.1-    120614 H01  0.3+  0.2-
    
    Ephemeris:
    2012 LQ7                 a,e,i = 2.34, 0.53, 10                  q = 1.1008
    Date    TT    R. A. (2000) Decl.     Delta      r     Elong.  Phase     V
    2012 05 15    15 56 06.4 +05 05 54   0.3163  1.3045   155.1    19.1    23.2
    ...
    2012 05 30    15 54 39.1 +02 13 47   0.2273  1.2230   154.6    20.8    22.4
    ...
    2012 06 07    15 54 46.5 -01 48 05   0.1879  1.1860   153.6    22.4    22.0
    ...
    2012 06 13    15 56 29.1 -06 37 16   0.1619  1.1620   152.8    23.5    21.7
    2012 06 14    15 56 59.0 -07 36 47   0.1579  1.1583   152.7    23.7    21.6
    2012 06 15    15 57 33.6 -08 39 54   0.1540  1.1547   152.6    23.9    21.6
    ...
    2012 06 21    16 03 07.1 -16 22 38   0.1332  1.1355   151.8    25.0    21.3
    ...
    2012 06 29    16 19 34.1 -30 43 34   0.1136  1.1160   149.5    27.5    20.9
    ...
    2012 07 14    18 04 49.9 -61 56 22   0.1118  1.1008   136.9    39.1    21.2
    
    A. U. Tomatic                (C) Copyright 2012 MPC           M.P.E.C. 2012-L38
    

    Read MPEC 2012-L37 Read MPEC 2012-L39


    MPEC number:

    Enter an MPEC number in one of the following forms:

    • 1997-B01 (the full form)
    • J97B01 (the packed version of the full form)
    • B01 (the abbreviated form)